Tracking 27420 objects as of 10-Jun-2023
HD Live streaming from Space Station
objects crossing your sky now

FREGAT DEB

Track FREGAT DEB now!
10-day predictions


NORAD ID: 45999
Int'l Code: 2011-037HA
Perigee: 754.7 km
Apogee: 4,640.7 km
Inclination: 51.5 °
Period: 143.2 minutes
Semi major axis: 9068 km
RCS: Unknown
Launch date: July 18, 2011
Source: Commonwealth of Independent States (former USSR) (CIS)
Launch site: TYURATAM MISSILE AND SPACE COMPLEX (TTMTR)

Note: This is SATELLITE DEBRIS
Your satellite tracking list
Your tracking list is empty




NASA's NSSDC Master Catalog

Two Line Element Set (TLE):
1 45999U 11037HA  23160.96009893  .00000509  00000-0  14334-2 0  9995
2 45999  51.4696  10.8053 2142536 222.0854 119.4232 10.05282892105142
Source of the keplerian elements: AFSPC